This is the latest recevied weather packets stored in our database for station/object N2XP-3. If no packets are shown the sender has not sent any weather packets the latest 10 day(s).
| Time | Temp. | Humidity | Pressure | Rain* | Wind** | Luminosity | Snow |
|---|---|---|---|---|---|---|---|
| 1777222798 | 15.56° C | 60% | 1017.1 hPa | 0 mm | 0.89 m/s, 52° | - | - |
| 1777222487 | 15° C | 60% | 1017.2 hPa | 0 mm | 0.45 m/s, 66° | - | - |
| 1777222317 | 15.56° C | 60% | 1017.2 hPa | 0 mm | 1.34 m/s, 53° | - | - |
| 1777222188 | 15.56° C | 60% | 1017.2 hPa | 0 mm | 1.34 m/s, 53° | - | - |
| 1777221586 | 15° C | 61% | 1017.3 hPa | 0 mm | 1.79 m/s, 53° | - | - |
| 1777221287 | 15.56° C | 61% | 1017.3 hPa | 0 mm | 1.34 m/s, 41° | - | - |
| 1777220988 | 15° C | 62% | 1017.3 hPa | 0 mm | 0.45 m/s, 143° | - | - |
| 1777220684 | 15° C | 63% | 1017.3 hPa | 0 mm | 1.34 m/s, 72° | - | - |
| 1777220421 | 14.44° C | 63% | 1017.3 hPa | 0 mm | 1.79 m/s, 52° | - | - |
| 1777220384 | 14.44° C | 63% | 1017.3 hPa | 0 mm | 1.79 m/s, 52° | - | - |
| 1777220075 | 14.44° C | 65% | 1017.2 hPa | 0 mm | 1.34 m/s, 52° | - | - |
| 1777219471 | 13.89° C | 67% | 1017.3 hPa | 0 mm | 0.89 m/s, 170° | - | - |
| 1777219171 | 13.89° C | 70% | 1017.3 hPa | 0 mm | 0 m/s | - | - |
| 1777218865 | 13.33° C | 69% | 1017.4 hPa | 0 mm | 1.79 m/s, 135° | - | - |
| 1777218565 | 13.33° C | 70% | 1017.5 hPa | 0 mm | 1.79 m/s, 55° | - | - |
| 1777217961 | 12.78° C | 71% | 1017.3 hPa | 0 mm | 1.79 m/s, 136° | - | - |
| 1777217060 | 12.78° C | 75% | 1017.2 hPa | 0 mm | 0.45 m/s, 62° | - | - |
| 1777216760 | 12.22° C | 73% | 1017.1 hPa | 0 mm | 1.79 m/s, 63° | - | - |
| 1777216497 | 12.22° C | 74% | 1017.2 hPa | 0 mm | 3.58 m/s, 38° | - | - |
| 1777216458 | 12.22° C | 74% | 1017.2 hPa | 0 mm | 3.58 m/s, 38° | - | - |
| 1777216156 | 12.22° C | 76% | 1017.2 hPa | 0 mm | 1.79 m/s, 203° | - | - |
| 1777215854 | 11.67° C | 77% | 1017.3 hPa | 0 mm | 1.79 m/s, 120° | - | - |
| 1777215555 | 11.67° C | 80% | 1017.2 hPa | 0 mm | 2.24 m/s, 52° | - | - |
| 1777215252 | 11.11° C | 82% | 1017.2 hPa | 0 mm | 2.24 m/s, 41° | - | - |
| 1777214953 | 10.56° C | 85% | 1017.3 hPa | 0 mm | 2.24 m/s, 75° | - | - |
* Rain latest hour (hover to see other rain measurements)
** Current wind speed in m/s (hover to see current wind gust speed)